Regional Weather Roundup
Issued by NWS

Home | Current Version | Previous Version | Graphics & Text | Print | Product List | Glossary Off
Versions: 1 2 3 4 5 6 7 8 9 10 11 12 13 14 15 16 17 18 19 20 21 22 23 24 25 26 27 28 29 30 31 32 33 34 35 36 37 38 39 40 41 42 43 44 45 46 47 48 49 50

000
ASUS43 KDMX 220901
RWRIA

WEATHER ROUNDUP FOR IOWA
NATIONAL WEATHER SERVICE DES MOINES IA
400 AM CDT WED MAR 22 2017

NOTE: "FAIR" INDICATES FEW OR NO CLOUDS BELOW 12,000 FEET WITH NO
SIGNIFICANT WEATHER AND/OR OBSTRUCTIONS TO VISIBILITY.

* - THESE STATIONS ARE NOT NWS STATIONS...THUS NOT UNDER NWS
QUALITY CONTROL.  THEY ALSO DO NOT REPORT WEATHER SUCH
AS PRECIPITATION OR FOG.

IAZ001>003-012>014-020>022-031>034-043>046-221000-
   NORTHWEST IOWA

CITY           SKY/WX    TMP DP  RH WIND       PRES   REMARKS
CARROLL *      CLOUDY    27  21  80 NE3       30.46S
CHEROKEE *     PTCLDY    27  18  71 NE5       30.47S WCI  21
DENISON *      PTCLDY    28  19  69 E12       30.43S WCI  18
LE MARS *      PTCLDY    28  19  69 E7        30.47F WCI  21
ORANGE CITY *  MOCLDY    27  18  69 E7        30.46R WCI  19
SHELDON *      MOCLDY    27  19  74 E12       30.45S WCI  16
SIOUX CITY     PTCLDY    29  22  75 E6        30.47S WCI  23
SPENCER        PTCLDY    24  17  74 E9        30.47F WCI  14
STORM LAKE *   PTCLDY    27  18  69 E13G18    30.45F WCI  16
$$

IAZ055>058-069>071-079>083-090>094-221000-
   SOUTHWEST IOWA

CITY           SKY/WX    TMP DP  RH WIND       PRES   REMARKS
ATLANTIC *     PTCLDY    30  19  64 NE8       30.43F WCI  23
AUDUBON *      PTCLDY    28  21  74 NE9       30.45S WCI  20
CLARINDA *     CLOUDY    36  21  55 NE10      30.43S WCI  28
COUNCIL BLFS * CLOUDY    34  21  60 E10G17    30.42F WCI  26
CRESTON *      PTCLDY    28  19  69 NE13G18   30.42F WCI  18
HARLAN  *      CLOUDY    30  21  69 NE10      30.47S WCI  21
LAMONI         MOCLDY    32  19  58 NE14      30.40F WCI  22
RED OAK *      CLOUDY    34  19  55 NE14      30.42S WCI  24
SHENANDOAH *   CLOUDY    36  21  55 NE14      30.42S WCI  27
$$

IAZ047>049-059>061-072>074-084-221000-
   CENTRAL IOWA

CITY           SKY/WX    TMP DP  RH WIND       PRES   REMARKS
AMES           PTCLDY    27  18  69 NE5       30.48S WCI  22
ANKENY *       PTCLDY    27  18  69 NE8       30.48S WCI  18
BOONE *        CLOUDY    27  18  69 NE8       30.46S WCI  18
CHARITON *     PTCLDY    28  19  69 NE9       30.42F WCI  20
DES MOINES     CLOUDY    31  16  54 NE10      30.46S WCI  22
GRINNELL*      CLOUDY    27  17  66 NE9       30.47S WCI  18
MARSHALLTOWN   CLOUDY    26  16  65 NE8       30.46S WCI  18
NEWTON *       PTCLDY    27  16  63 NE10      30.45F WCI  17
PELLA *        CLOUDY    28  18  68 NE6       30.46F WCI  21
PERRY *          N/A     28  16  60 NE9       30.46F WCI  19
$$

IAZ004>006-015-016-023>025-035-036-221000-
   NORTH CENTRAL IOWA

CITY           SKY/WX    TMP DP  RH WIND       PRES   REMARKS
ALGONA *       CLOUDY    25  19  80 NE7       30.48S WCI  17
CLARION *      CLOUDY    25  18  74 NE9       30.48S WCI  15
ESTHERVILLE    CLOUDY    22  17  81 NE7       30.48S WCI  13
FORT DODGE *   PTCLDY    25  16  68 NE3       30.49R
MASON CITY     CLOUDY    20  13  74 NE7       30.50S WCI  11
FOREST CITY *    N/A     21  14  73 CALM      30.49S
WEBSTER CITY * PTCLDY    27  16  63 NE8       30.46S WCI  18
IOWA FALLS *     N/A     27  18  69 NE9       30.48F WCI  17
$$

IAZ007>011-017>019-026>030-037>042-050>054-066-221000-
   NORTHEAST IOWA

CITY           SKY/WX    TMP DP  RH WIND       PRES   REMARKS
CEDAR RAPIDS   CLOUDY    28  18  66 NE10      30.45S WCI  19
CHARLES CITY * CLEAR     25  12  58 NE10      30.49S WCI  15
CLINTON *      CLOUDY    30  23  75 E13       30.49S WCI  20
DECORAH *      CLEAR     23  12  63 E6        30.49R WCI  16
DUBUQUE        CLEAR     26  15  63 NE9       30.48R WCI  17
MONTICELLO *   CLEAR     27  18  69 E6        30.49R WCI  20
OELWEIN *      CLEAR     23  18  80 NE9       30.48S WCI  13
WATERLOO       CLOUDY    22  13  68 NE6       30.49R WCI  14
$$

IAZ064-065-067-068-078-221000-
   EAST CENTRAL IOWA

CITY           SKY/WX    TMP DP  RH WIND       PRES   REMARKS
DAVENPORT      PTCLDY    28  23  81 E9        30.47S WCI  19
IOWA CITY      CLOUDY    31  20  63 NE9       30.48R WCI  23
MUSCATINE *    CLOUDY    32  25  74 E10       30.48R WCI  24
QUAD CITIES    CLEAR     31  23  72 E14       30.47S WCI  21
$$

IAZ062-063-075>077-085>089-095>099-221000-
   SOUTHEAST IOWA

CITY           SKY/WX    TMP DP  RH WIND       PRES   REMARKS
BURLINGTON     PTCLDY    32  27  81 E14       30.42R WCI  22
FAIRFIELD *    PTCLDY    27  18  69 N8        30.44R WCI  18
FORT MADISON * PTCLDY    34  23  64 NE12      30.43R WCI  25
KEOKUK *       PTCLDY    36  23  60 NE14G22   30.40S WCI  27
OSKALOOSA *      N/A     26  20  76 NE10      30.44F WCI  16
CENTERVILLE *    N/A     28  18  64 N9        30.42F WCI  20
OTTUMWA        PTCLDY    27  19  72 NE8       30.43F WCI  19
WASHINGTON *   MOCLDY    28  19  69 NE10      30.46S WCI  19
$$

ABBREVIATIONS USED IN REMARKS
   TC - TEMPERATURES IN CELSIUS
  WCI - WIND CHILL INDEX
   HX - HEAT INDEX
  VSB - VISIBILITY
$$





USA.gov is the U.S. government's official web portal to all federal, state and local government web resources and services.